TimeMST,TemperatureF,Dew PointF,Humidity,Sea Level PressureIn,VisibilityMPH,Wind Direction,Wind SpeedMPH,Gust SpeedMPH,PrecipitationIn,Events,Conditions,WindDirDegrees,DateUTC
12:15 AM,35.6,21.2,56,30.14,10.0,WSW,13.8,-,N/A,,Clear,240,2013-01-19 07:15:00
12:35 AM,37.4,21.2,52,30.13,10.0,WSW,13.8,-,N/A,,Clear,250,2013-01-19 07:35:00
12:55 AM,35.6,21.2,56,30.13,10.0,WSW,11.5,-,N/A,,Clear,250,2013-01-19 07:55:00
1:15 AM,35.6,21.2,56,30.13,10.0,West,12.7,-,N/A,,Clear,260,2013-01-19 08:15:00
1:35 AM,35.6,21.2,56,30.13,10.0,WSW,13.8,-,N/A,,Clear,250,2013-01-19 08:35:00
1:55 AM,33.8,21.2,60,30.12,10.0,WSW,12.7,-,N/A,,Clear,240,2013-01-19 08:55:00
2:15 AM,33.8,21.2,60,30.12,10.0,WSW,11.5,-,N/A,,Clear,250,2013-01-19 09:15:00
2:35 AM,33.8,21.2,60,30.11,10.0,West,12.7,-,N/A,,Clear,260,2013-01-19 09:35:00
2:55 AM,32.0,21.2,64,30.11,10.0,West,11.5,-,N/A,,Clear,280,2013-01-19 09:55:00
3:15 AM,33.8,17.6,52,30.11,10.0,West,12.7,-,N/A,,Clear,280,2013-01-19 10:15:00
3:35 AM,32.0,17.6,55,30.10,10.0,West,13.8,-,N/A,,Clear,280,2013-01-19 10:35:00
3:55 AM,32.0,17.6,55,30.10,10.0,West,13.8,-,N/A,,Clear,280,2013-01-19 10:55:00
4:15 AM,32.0,17.6,55,30.10,10.0,West,13.8,-,N/A,,Clear,280,2013-01-19 11:15:00
4:35 AM,32.0,19.4,60,30.10,10.0,West,12.7,-,N/A,,Clear,280,2013-01-19 11:35:00
4:55 AM,32.0,17.6,55,30.11,10.0,WNW,15.0,-,N/A,,Clear,290,2013-01-19 11:55:00
5:15 AM,32.0,17.6,55,30.11,10.0,WNW,12.7,-,N/A,,Clear,290,2013-01-19 12:15:00
5:35 AM,32.0,17.6,55,30.11,10.0,WNW,13.8,-,N/A,,Clear,290,2013-01-19 12:35:00
5:55 AM,30.2,17.6,60,30.12,10.0,WNW,12.7,-,N/A,,Clear,290,2013-01-19 12:55:00
6:15 AM,30.2,17.6,60,30.12,10.0,West,13.8,-,N/A,,Clear,280,2013-01-19 13:15:00
6:35 AM,30.2,17.6,60,30.13,10.0,WNW,11.5,-,N/A,,Clear,290,2013-01-19 13:35:00
6:55 AM,30.2,17.6,60,30.13,10.0,West,11.5,-,N/A,,Clear,280,2013-01-19 13:55:00
7:15 AM,30.2,15.8,55,30.14,10.0,WNW,10.4,-,N/A,,Clear,290,2013-01-19 14:15:00
7:35 AM,30.2,17.6,60,30.15,10.0,WNW,10.4,-,N/A,,Clear,290,2013-01-19 14:35:00
7:55 AM,33.8,17.6,52,30.16,10.0,WNW,11.5,-,N/A,,Clear,300,2013-01-19 14:55:00
8:15 AM,37.4,19.4,48,30.17,10.0,NW,11.5,-,N/A,,Clear,320,2013-01-19 15:15:00
8:35 AM,39.2,19.4,45,30.18,10.0,NNW,13.8,-,N/A,,Clear,330,2013-01-19 15:35:00
8:55 AM,42.8,19.4,39,30.19,10.0,NNW,15.0,-,N/A,,Clear,340,2013-01-19 15:55:00
9:15 AM,46.4,24.8,43,30.21,10.0,NNW,15.0,-,N/A,,Clear,340,2013-01-19 16:15:00
9:35 AM,51.8,21.2,30,30.22,10.0,North,15.0,-,N/A,,Clear,350,2013-01-19 16:35:00
9:55 AM,55.4,21.2,26,30.23,10.0,North,12.7,-,N/A,,Clear,10,2013-01-19 16:55:00
10:15 AM,55.4,19.4,25,30.23,10.0,North,15.0,-,N/A,,Clear,10,2013-01-19 17:15:00
10:35 AM,57.2,17.6,21,30.23,10.0,North,17.3,23.0,N/A,,Clear,10,2013-01-19 17:35:00
10:55 AM,59.0,15.8,19,30.23,10.0,North,17.3,24.2,N/A,,Clear,360,2013-01-19 17:55:00
11:15 AM,59.0,12.2,16,30.22,10.0,North,19.6,-,N/A,,Clear,10,2013-01-19 18:15:00
11:35 AM,60.8,14.0,16,30.22,10.0,North,18.4,23.0,N/A,,Clear,10,2013-01-19 18:35:00
11:55 AM,60.8,12.2,15,30.21,10.0,North,20.7,28.8,N/A,,Clear,10,2013-01-19 18:55:00
12:15 PM,60.8,14.0,16,30.21,10.0,North,25.3,32.2,N/A,,Clear,10,2013-01-19 19:15:00
12:35 PM,60.8,14.0,16,30.20,10.0,North,26.5,-,N/A,,Clear,10,2013-01-19 19:35:00
12:55 PM,60.8,14.0,16,30.20,10.0,NNE,26.5,31.1,N/A,,Clear,30,2013-01-19 19:55:00
1:15 PM,60.8,14.0,16,30.21,10.0,NNE,26.5,32.2,N/A,,Clear,30,2013-01-19 20:15:00
1:35 PM,60.8,12.2,15,30.21,10.0,NNE,24.2,-,N/A,,Clear,20,2013-01-19 20:35:00
1:55 PM,60.8,12.2,15,30.21,10.0,NNE,24.2,29.9,N/A,,Clear,30,2013-01-19 20:55:00
2:15 PM,60.8,14.0,16,30.21,10.0,NNE,21.9,29.9,N/A,,Clear,30,2013-01-19 21:15:00
2:35 PM,60.8,14.0,16,30.21,10.0,NNE,21.9,25.3,N/A,,Clear,30,2013-01-19 21:35:00
2:55 PM,60.8,12.2,15,30.22,10.0,NNE,19.6,-,N/A,,Clear,30,2013-01-19 21:55:00
3:15 PM,60.8,12.2,15,30.22,10.0,NNE,19.6,23.0,N/A,,Clear,30,2013-01-19 22:15:00
3:35 PM,60.8,12.2,15,30.23,10.0,NE,17.3,-,N/A,,Clear,40,2013-01-19 22:35:00
3:55 PM,60.8,12.2,15,30.23,10.0,NE,17.3,-,N/A,,Clear,40,2013-01-19 22:55:00
4:15 PM,59.0,10.4,15,30.23,10.0,NE,15.0,-,N/A,,Clear,40,2013-01-19 23:15:00
4:35 PM,57.2,10.4,16,30.24,10.0,NE,10.4,-,N/A,,Clear,40,2013-01-19 23:35:00
4:55 PM,53.6,12.2,19,30.24,10.0,NE,8.1,-,N/A,,Clear,50,2013-01-19 23:55:00
5:15 PM,48.2,10.4,22,30.25,10.0,NE,6.9,-,N/A,,Clear,40,2013-01-20 00:15:00
5:35 PM,46.4,12.2,25,30.25,10.0,North,5.8,-,N/A,,Clear,10,2013-01-20 00:35:00
5:55 PM,42.8,10.4,27,30.26,10.0,NNE,8.1,-,N/A,,Clear,20,2013-01-20 00:55:00
6:15 PM,39.2,12.2,33,30.27,10.0,North,9.2,-,N/A,,Clear,360,2013-01-20 01:15:00
6:35 PM,39.2,12.2,33,30.27,10.0,North,6.9,-,N/A,,Clear,360,2013-01-20 01:35:00
6:55 PM,41.0,14.0,33,30.28,10.0,North,8.1,-,N/A,,Clear,350,2013-01-20 01:55:00
7:15 PM,37.4,12.2,36,30.28,10.0,North,6.9,-,N/A,,Clear,350,2013-01-20 02:15:00
7:35 PM,37.4,15.8,41,30.29,10.0,NNW,6.9,-,N/A,,Clear,330,2013-01-20 02:35:00
7:55 PM,37.4,15.8,41,30.29,10.0,North,6.9,-,N/A,,Clear,350,2013-01-20 02:55:00
8:15 PM,35.6,14.0,41,30.29,10.0,North,5.8,-,N/A,,Clear,350,2013-01-20 03:15:00
8:35 PM,35.6,14.0,41,30.29,10.0,North,8.1,-,N/A,,Clear,350,2013-01-20 03:35:00
8:55 PM,33.8,14.0,44,30.29,10.0,North,9.2,-,N/A,,Clear,10,2013-01-20 03:55:00
9:15 PM,33.8,12.2,41,30.29,10.0,NNE,12.7,-,N/A,,Clear,30,2013-01-20 04:15:00
9:35 PM,35.6,12.2,38,30.30,10.0,Calm,Calm,-,N/A,,Clear,0,2013-01-20 04:35:00
9:55 PM,37.4,12.2,36,30.30,10.0,North,6.9,-,N/A,,Clear,10,2013-01-20 04:55:00
10:15 PM,37.4,15.8,41,30.31,10.0,North,4.6,-,N/A,,Clear,360,2013-01-20 05:15:00
10:35 PM,35.6,12.2,38,30.31,10.0,NW,4.6,-,N/A,,Clear,310,2013-01-20 05:35:00
10:55 PM,30.2,12.2,47,30.31,10.0,WNW,8.1,-,N/A,,Clear,290,2013-01-20 05:55:00
11:15 PM,30.2,12.2,47,30.31,10.0,NW,5.8,-,N/A,,Clear,310,2013-01-20 06:15:00
11:35 PM,30.2,14.0,51,30.30,10.0,Calm,Calm,-,N/A,,Clear,0,2013-01-20 06:35:00
11:55 PM,28.4,12.2,51,30.30,10.0,NNW,5.8,-,N/A,,Clear,340,2013-01-20 06:55:00